User: anonymous   Login
Location: Champs
(48.8539°N, 2.6040°E)
Time: 11:27:50
(UTC+00:00)
Language:

USA 306 - Orbit

View from above orbital plane
View from above orbital plane
View from above satellite
View from above satellite

Ground track
Ground track

The orbit data is extracted from the following two-line orbital elements,

1 45874U 20046B   22013.19516839 0.00005500  00000-0  42941-3 0    06
2 45874  53.9762  73.0122 0009063 291.6355  68.3644 15.00646037    09
Epoch (UTC): 13 January 2022 04:41:02
Eccentricity: 0.0009063
inclination: 53.9762°
perigee height: 558 km
apogee height: 571 km
right ascension of ascending node: 73.0122°
argument of perigee: 291.6355°
revolutions per day: 15.00646037
mean anomaly at epoch: 68.3644°
orbit number at epoch: 0

The dashed part of the orbit path shows where the satellite is in the earth's shadow,  

DLR